Portada
METAR-TAF:

METAR-TAF

Aeroports :

Arauca, Colòmbia

latitud: 07-04N, longitud: 070-44W, altitud: 128 m

Observació

L'informe es va fer fa 45 minuts, a les 11:00 UTC
Vent 2 kt amb direcció variable
Temperatura 25°C
Humitat 100%
Pressió 1011 hPa
Visibilitat 10 km o més
Núvols disperses a una alçada de 2300 ft

METAR: SKUC 091100Z VRB02KT 9999 SCT023 25/25 Q1011 RMK A2986

Hora: 06:45 (11:45 UTC)


TAF: manca

Observacions i pronòstics meteorològics de més de 4000 aeroports (METAR i TAF).

Les estacions disponibles són els punts grocs i vermells al mapa.

Posi el ratolí al punt desitjat per veure el nom de l'estació.

Feu clic per veure les observacions i els pronòstics meteorològics.

Per canviar el mapa: feu clic els botons verds amb una creu de color negre per apropar; al botó verd amb un guió per allunyar la imatge; o en les fletxes verdes per a mapes adjacents.


METAR-TAF: